�������l�o���
Date,Time,MP-1(��Sv/h),MP-2(��Sv/h),MP-3(��Sv/h),MP-4(��Sv/h),MP-5(��Sv/h),MP-6(��Sv/h),MP-7(��Sv/h),MP-8(��Sv/h),����,����(m/s),���J
2021/10/15,00:00,0.575,0.858,0.546,1.041,0.728,0.355,0.612,0.578,��,1.7,��
2021/10/15,00:10,0.575,0.857,0.545,1.040,0.730,0.354,0.613,0.577,��쐼,2.0,��
2021/10/15,00:20,0.575,0.858,0.546,1.041,0.728,0.355,0.614,0.576,��쐼,2.3,��
2021/10/15,00:30,0.574,0.858,0.548,1.041,0.731,0.355,0.613,0.578,��쐼,2.0,��
2021/10/15,00:40,0.574,0.857,0.548,1.043,0.730,0.356,0.613,0.578,��,1.9,��
2021/10/15,00:50,0.576,0.858,0.547,1.041,0.729,0.356,0.612,0.577,���쐼,2.0,��
2021/10/15,01:00,0.574,0.859,0.547,1.039,0.730,0.355,0.613,0.576,��,1.4,��
2021/10/15,01:10,0.574,0.858,0.547,1.039,0.728,0.356,0.612,0.577,-,CALM,��
2021/10/15,01:20,0.575,0.857,0.547,1.039,0.729,0.355,0.613,0.576,-,CALM,��
2021/10/15,01:30,0.575,0.858,0.548,1.041,0.729,0.356,0.613,0.576,�k�k��,0.6,��
2021/10/15,01:40,0.576,0.857,0.546,1.042,0.729,0.355,0.612,0.577,��,0.6,��
2021/10/15,01:50,0.575,0.857,0.547,1.041,0.730,0.356,0.612,0.578,-,CALM,��
2021/10/15,02:00,0.575,0.855,0.547,1.041,0.729,0.357,0.612,0.577,���쐼,0.6,��
2021/10/15,02:10,0.573,0.857,0.546,1.040,0.732,0.356,0.613,0.576,�쐼,2.0,��
2021/10/15,02:20,0.573,0.858,0.545,1.042,0.731,0.353,0.614,0.578,�쐼,3.1,��
2021/10/15,02:30,0.573,0.857,0.545,1.041,0.728,0.354,0.613,0.577,���쐼,3.8,��
2021/10/15,02:40,0.575,0.856,0.547,1.041,0.730,0.355,0.612,0.576,�쐼,3.7,��
2021/10/15,02:50,0.573,0.858,0.547,1.040,0.730,0.354,0.611,0.576,���쐼,3.1,��
2021/10/15,03:00,0.573,0.856,0.545,1.041,0.730,0.355,0.614,0.577,���쐼,3.6,��
2021/10/15,03:10,0.574,0.854,0.546,1.039,0.728,0.355,0.613,0.577,���쐼,3.4,��
2021/10/15,03:20,0.574,0.856,0.547,1.040,0.729,0.356,0.612,0.577,���쐼,4.6,��
2021/10/15,03:30,0.574,0.856,0.546,1.042,0.730,0.355,0.612,0.577,���쐼,5.7,��
2021/10/15,03:40,0.574,0.856,0.545,1.039,0.729,0.355,0.613,0.577,���쐼,4.7,��
2021/10/15,03:50,0.574,0.855,0.546,1.042,0.730,0.354,0.613,0.578,���쐼,4.7,��
2021/10/15,04:00,0.575,0.857,0.547,1.041,0.731,0.354,0.612,0.576,���쐼,4.7,��
2021/10/15,04:10,0.574,0.855,0.546,1.042,0.731,0.355,0.613,0.578,���쐼,4.6,��
2021/10/15,04:20,0.575,0.855,0.546,1.041,0.730,0.356,0.613,0.578,���쐼,4.6,��
2021/10/15,04:30,0.574,0.857,0.547,1.040,0.728,0.356,0.613,0.578,��,3.9,��
2021/10/15,04:40,0.576,0.856,0.546,1.041,0.730,0.354,0.612,0.575,��,3.2,��
2021/10/15,04:50,0.573,0.856,0.545,1.040,0.730,0.354,0.612,0.578,��,2.2,��
2021/10/15,05:00,0.574,0.856,0.547,1.041,0.729,0.355,0.612,0.577,�k��,1.5,��
2021/10/15,05:10,0.574,0.858,0.545,1.043,0.730,0.356,0.614,0.577,�k��,0.6,��
2021/10/15,05:20,0.573,0.855,0.547,1.040,0.730,0.355,0.613,0.578,��,0.8,��
2021/10/15,05:30,0.572,0.856,0.546,1.040,0.730,0.354,0.611,0.577,��,1.4,��
2021/10/15,05:40,0.572,0.858,0.546,1.042,0.730,0.355,0.612,0.578,��,2.2,��
2021/10/15,05:50,0.574,0.855,0.545,1.042,0.728,0.354,0.611,0.576,��,3.8,��
2021/10/15,06:00,0.574,0.856,0.546,1.041,0.731,0.355,0.612,0.577,��,4.2,��
2021/10/15,06:10,0.574,0.856,0.546,1.041,0.728,0.355,0.612,0.578,���쐼,3.5,��
2021/10/15,06:20,0.573,0.854,0.546,1.042,0.729,0.355,0.613,0.577,��,3.9,��
2021/10/15,06:30,0.573,0.856,0.545,1.042,0.730,0.355,0.613,0.578,��,5.2,��
2021/10/15,06:40,0.574,0.855,0.545,1.042,0.729,0.355,0.614,0.578,��,4.1,��
2021/10/15,06:50,0.573,0.856,0.545,1.041,0.729,0.354,0.613,0.576,��,3.7,��
2021/10/15,07:00,0.573,0.856,0.546,1.040,0.729,0.355,0.612,0.578,��,3.3,��
2021/10/15,07:10,0.574,0.857,0.546,1.040,0.731,0.354,0.612,0.577,��,2.6,��
2021/10/15,07:20,0.573,0.857,0.547,1.042,0.731,0.354,0.614,0.577,��,2.0,��
2021/10/15,07:30,0.572,0.858,0.547,1.043,0.732,0.356,0.614,0.578,��,2.3,�L
2021/10/15,07:40,0.575,0.856,0.547,1.041,0.731,0.354,0.613,0.577,��,2.0,��
2021/10/15,07:50,0.575,0.859,0.547,1.042,0.732,0.356,0.615,0.578,�쐼,1.2,��
2021/10/15,08:00,0.576,0.858,0.548,1.045,0.731,0.357,0.614,0.577,�쐼,0.8,��
2021/10/15,08:10,0.576,0.859,0.549,1.046,0.731,0.357,0.615,0.579,��쐼,0.6,��
2021/10/15,08:20,0.574,0.856,0.548,1.044,0.733,0.356,0.613,0.577,���쐼,1.9,��
2021/10/15,08:30,0.574,0.857,0.550,1.043,0.731,0.355,0.612,0.578,�쐼,2.0,��
2021/10/15,08:40,0.574,0.858,0.550,1.044,0.733,0.356,0.612,0.579,��쐼,1.5,��
2021/10/15,08:50,0.575,0.857,0.549,1.041,0.733,0.358,0.612,0.579,��,1.4,��
2021/10/15,09:00,0.573,0.856,0.550,1.045,0.733,0.356,0.611,0.579,��쓌,1.7,��
2021/10/15,09:10,0.577,0.857,0.549,1.044,0.730,0.356,0.614,0.578,��쓌,3.0,��
2021/10/15,09:20,0.575,0.857,0.548,1.044,0.731,0.356,0.613,0.579,��쓌,3.1,��
2021/10/15,09:30,0.576,0.858,0.548,1.042,0.731,0.355,0.613,0.579,��쓌,2.0,��
2021/10/15,09:40,0.577,0.857,0.547,1.043,0.730,0.354,0.613,0.577,��쓌,2.3,��
2021/10/15,09:50,0.576,0.858,0.546,1.044,0.731,0.354,0.612,0.576,�쓌,2.2,��
2021/10/15,10:00,0.578,0.859,0.546,1.042,0.734,0.355,0.612,0.576,�쓌,2.2,��
2021/10/15,10:10,0.578,0.860,0.548,1.044,0.731,0.354,0.613,0.575,�쓌,2.0,��
2021/10/15,10:20,0.577,0.860,-,1.044,0.734,0.354,0.613,0.577,���쓌,2.3,��
2021/10/15,10:30,0.576,0.858,-,1.047,0.733,0.355,0.612,0.576,���쓌,2.6,��
2021/10/15,10:40,0.576,0.861,-,1.043,0.735,0.354,0.612,0.577,���쓌,1.9,��
2021/10/15,10:50,0.579,0.858,-,1.044,0.735,0.355,0.612,0.576,���쓌,2.0,��
2021/10/15,11:00,0.578,0.859,-,1.045,0.732,0.355,0.612,0.578,�쓌,3.0,��
2021/10/15,11:10,0.578,0.862,-,1.046,0.734,0.355,0.613,0.578,�쓌,3.4,��
2021/10/15,11:20,0.578,0.862,-,1.044,0.736,0.355,0.613,0.576,�쓌,2.6,��
2021/10/15,11:30,0.578,0.865,-,1.045,0.735,0.355,0.614,0.576,�쓌,3.7,��
2021/10/15,11:40,0.579,0.862,-,1.045,0.734,0.354,0.613,0.577,��쓌,4.8,��
2021/10/15,11:50,0.579,0.864,-,1.045,0.736,0.355,0.615,0.575,��쓌,5.3,��
2021/10/15,12:00,0.578,0.863,-,1.047,0.737,0.355,0.615,0.577,��쓌,5.1,��
2021/10/15,12:10,0.579,0.864,-,1.049,0.736,0.356,0.614,0.577,��쓌,5.3,��
2021/10/15,12:20,0.579,0.864,-,1.046,0.737,0.357,0.616,0.577,��쓌,5.8,��
2021/10/15,12:30,0.580,0.862,-,1.047,0.736,0.355,0.615,0.577,��쓌,5.0,��
2021/10/15,12:40,0.580,0.864,-,1.047,0.736,0.355,0.615,0.579,��쓌,5.2,��
2021/10/15,12:50,0.579,0.865,-,1.047,0.735,0.354,0.614,0.578,��쓌,5.8,��
2021/10/15,13:00,0.579,0.862,-,1.045,0.737,0.354,0.615,0.578,��쓌,4.5,��
2021/10/15,13:10,0.579,0.864,-,1.047,0.738,0.356,0.615,0.577,��쓌,4.6,��
2021/10/15,13:20,0.579,0.863,-,1.049,0.738,0.358,0.615,0.579,��쓌,5.2,��
2021/10/15,13:30,0.581,0.863,-,1.048,0.737,0.355,0.614,0.577,��쓌,4.9,��
2021/10/15,13:40,0.580,0.865,-,1.048,0.736,0.356,0.615,0.578,��쓌,5.2,��
2021/10/15,13:50,0.579,0.862,-,1.048,0.737,0.356,0.615,0.578,��쓌,5.5,��
2021/10/15,14:00,0.580,0.865,-,1.047,0.739,0.356,0.614,0.577,��쓌,5.1,��
2021/10/15,14:10,0.580,0.863,-,1.048,0.737,0.356,0.615,0.577,��쓌,5.8,��
2021/10/15,14:20,0.579,0.864,-,1.047,0.738,0.355,0.615,0.578,��쓌,4.7,��
2021/10/15,14:30,0.579,0.864,-,1.048,0.737,0.355,0.616,0.577,��쓌,4.6,��
2021/10/15,14:40,0.579,0.864,0.552,1.046,0.740,0.357,0.615,0.577,��쓌,5.0,��
2021/10/15,14:50,0.578,0.866,0.550,1.045,0.739,0.355,0.615,0.578,��쓌,5.2,��
2021/10/15,15:00,0.578,0.866,0.552,1.047,0.739,0.356,0.615,0.577,��쓌,4.6,��
2021/10/15,15:10,0.579,0.865,0.553,1.046,0.738,0.355,0.616,0.578,��쓌,5.8,��
2021/10/15,15:20,0.581,0.866,0.551,1.049,0.737,0.355,0.615,0.578,��쓌,4.2,��
2021/10/15,15:30,0.581,0.868,0.551,1.048,0.739,0.356,0.616,0.577,��,3.1,��
2021/10/15,15:40,0.580,0.867,0.551,1.049,0.738,0.356,0.616,0.577,��,2.9,��
2021/10/15,15:50,0.579,0.867,0.549,1.047,0.739,0.355,0.614,0.577,��,3.9,��
2021/10/15,16:00,0.579,0.867,0.550,1.048,0.739,0.355,0.615,0.579,��,3.6,��
2021/10/15,16:10,0.581,0.866,0.551,1.048,0.738,0.357,0.614,0.578,��쓌,3.8,��
2021/10/15,16:20,0.579,0.866,0.551,1.049,0.739,0.356,0.614,0.576,��,4.7,��
2021/10/15,16:30,0.580,0.865,0.551,1.049,0.738,0.356,0.616,0.577,��,4.1,��
2021/10/15,16:40,0.580,0.867,0.551,1.049,0.737,0.357,0.615,0.578,��,4.0,��
2021/10/15,16:50,0.579,0.867,0.549,1.050,0.738,0.356,0.614,0.576,��,3.9,��
2021/10/15,17:00,0.579,0.870,0.552,1.050,0.736,0.358,0.616,0.577,��,4.5,��
2021/10/15,17:10,0.579,0.870,0.549,1.049,0.740,0.358,0.615,0.578,��,4.2,��
2021/10/15,17:20,0.579,0.869,0.551,1.050,0.737,0.357,0.616,0.579,��,3.3,��
2021/10/15,17:30,0.579,0.872,0.554,1.048,0.738,0.357,0.616,0.578,��,3.7,��
2021/10/15,17:40,0.578,0.872,0.553,1.048,0.739,0.357,0.615,0.580,��,2.9,��
2021/10/15,17:50,0.582,0.870,0.553,1.047,0.740,0.358,0.617,0.580,��,2.6,��
2021/10/15,18:00,0.582,0.871,0.553,1.048,0.742,0.356,0.616,0.579,��,2.3,��
2021/10/15,18:10,0.581,0.871,0.554,1.047,0.741,0.357,0.615,0.578,��,1.5,��
2021/10/15,18:20,0.584,0.870,0.552,1.048,0.742,0.356,0.617,0.579,���쐼,0.6,��
2021/10/15,18:30,0.584,0.870,0.553,1.049,0.741,0.357,0.617,0.580,-,CALM,��
2021/10/15,18:40,0.582,0.872,0.553,1.049,0.742,0.358,0.616,0.580,�k�k��,0.8,��
2021/10/15,18:50,0.581,0.870,0.552,1.049,0.742,0.357,0.618,0.579,�k��,3.0,��
2021/10/15,19:00,0.583,0.871,0.554,1.047,0.741,0.357,0.616,0.581,�k��,4.8,��
2021/10/15,19:10,0.583,0.871,0.555,1.049,0.742,0.357,0.617,0.581,�k��,5.1,��
2021/10/15,19:20,0.582,0.869,0.553,1.048,0.741,0.357,0.616,0.580,�k�k��,4.6,��
2021/10/15,19:30,0.583,0.871,0.554,1.051,0.743,0.358,0.616,0.580,�k��,5.4,��
2021/10/15,19:40,0.583,0.871,0.554,1.049,0.744,0.359,0.616,0.579,�k�k��,4.3,��
2021/10/15,19:50,0.583,0.871,0.553,1.050,0.743,0.357,0.616,0.579,�k��,4.0,��
2021/10/15,20:00,0.581,0.869,0.554,1.049,0.746,0.358,0.617,0.579,�k�k��,3.9,��
2021/10/15,20:10,0.582,0.871,0.556,1.048,0.742,0.357,0.617,0.578,�k�k��,3.5,��
2021/10/15,20:20,0.583,0.869,0.555,1.050,0.742,0.357,0.615,0.578,�k��,4.6,��
2021/10/15,20:30,0.581,0.870,0.555,1.052,0.740,0.358,0.615,0.579,�k�k��,4.8,��
2021/10/15,20:40,0.582,0.867,0.554,1.048,0.741,0.357,0.615,0.579,�k�k��,4.6,��
2021/10/15,20:50,0.581,0.870,0.554,1.048,0.741,0.356,0.615,0.580,�k�k��,5.0,��
2021/10/15,21:00,0.582,0.871,0.555,1.049,0.741,0.358,0.617,0.578,�k�k��,5.3,��
2021/10/15,21:10,0.582,0.869,0.552,1.049,0.743,0.357,0.616,0.579,�k�k��,5.0,��
2021/10/15,21:20,0.581,0.869,0.552,1.050,0.742,0.357,0.615,0.579,�k�k��,5.6,��
2021/10/15,21:30,0.581,0.870,0.551,1.051,0.741,0.357,0.617,0.580,�k�k��,5.3,��
2021/10/15,21:40,0.582,0.869,0.553,1.049,0.742,0.357,0.615,0.579,�k�k��,4.0,��
2021/10/15,21:50,0.580,0.867,0.554,1.051,0.741,0.358,0.617,0.579,�k�k��,6.7,��
2021/10/15,22:00,0.584,0.868,0.554,1.050,0.742,0.356,0.616,0.580,�k�k��,8.1,��
2021/10/15,22:10,0.584,0.868,0.554,1.051,0.740,0.358,0.615,0.580,�k,6.8,��
2021/10/15,22:20,0.583,0.867,0.553,1.048,0.742,0.358,0.616,0.579,�k�k��,6.9,��
2021/10/15,22:30,0.583,0.870,0.553,1.050,0.742,0.356,0.611,0.580,�k�k��,7.1,��
2021/10/15,22:40,0.581,0.867,0.554,1.049,0.743,0.356,0.615,0.580,�k,6.3,��
2021/10/15,22:50,0.581,0.869,0.552,1.050,0.742,0.355,0.612,0.580,�k,6.2,��
2021/10/15,23:00,0.582,0.868,0.553,1.051,0.743,0.355,0.615,0.580,�k�k��,6.9,��
2021/10/15,23:10,0.581,0.868,0.552,1.050,0.743,0.354,0.615,0.579,�k�k��,7.5,�L
2021/10/15,23:20,0.581,0.871,0.553,1.050,0.741,0.354,0.614,0.580,�k�k��,7.7,��
2021/10/15,23:30,0.580,0.867,0.552,1.052,0.743,0.356,0.613,0.578,�k�k��,7.1,��
2021/10/15,23:40,0.581,0.869,0.552,1.050,0.741,0.356,0.614,0.580,�k�k��,7.1,��
2021/10/15,23:50,0.580,0.871,0.553,1.052,0.740,0.355,0.613,0.579,�k,7.0,��
